Weather in Vysokoye

Russia / Kursk Oblast     51°25′31″N   36°00′27″E
temp.,
°C
wind,
m/s
gust,
m/s
humid.,
%
clouds,
%
prec.,
mm/h
press.,
hPa
HPBL,
m
4 march, thu
thu400:00−2w5119452 0.0 1019322
03:00−3wsw5109332 0.0 1018272
06:00−4wsw511920 0.0 1016246
09:00−3sw714890 0.0 1013383
12:000sw814910 0.0 1010585
15:00+1sw713987 0.0 1008497
18:00+1wsw8139798 0.0 1006633
21:00+2w6129899 0.2 1005457
5 march, fri
fri500:00+1w51198100 0.1 1005403
03:000wnw5996100 0.1 1006517
06:00−3wnw599696 0.1 1008330
09:00−1wnw479296 0.1 1010592
12:00−1nnw349188 0.0 1011449
15:000nnw238287 0.1 1012541
18:00−2nnw1289100 0.0 101324
21:00−3nnw1190100 0.0 101521
6 march, sat
sat600:00−3nnw2293100 0.0 101675
03:00−5nnw2390100 0.0 1016104
06:00−5nw3590100 0.0 1016154
09:00−5nw479387 0.1 1017435
12:00−4nw6879100 0.2 1017924
15:00−4nw71073100 0.5 10181382
18:00−5nw61178100 0.3 10191006
21:00−6nw5118263 0.3 1021524
7 march, sun
sun700:00−7wnw49890 0.0 1022286
03:00−7w48890 0.0 1022256
06:00−7wsw611851 0.0 1020330
09:00−5sw8157241 0.0 1017733
12:00−2wsw111767100 0.0 10141113
15:00−2wsw121981100 0.1 10101319
18:00−1wsw91777100 0.1 10091103
21:00−2wsw8168092 0.1 1008788
8 march, mon
mon800:00−2wsw7158656 0.0 1007650
03:00−2wsw8149067 0.0 1006824
06:00−2wsw81589100 0.2 1004822
09:00−3wnw81381100 1.1 10061143
12:00−4nw797496 0.1 10091068
15:00−4wnw455865 0.1 1011871
18:00−5nw22740 0.0 101281
21:00−7nw11790 0.0 101321